TimeEDT,TemperatureF,Dew PointF,Humidity,Sea Level PressureIn,VisibilityMPH,Wind Direction,Wind SpeedMPH,Gust SpeedMPH,PrecipitationIn,Events,Conditions,WindDirDegrees,DateUTC
12:11 AM,51.8,51.8,100,29.81,2.5,NE,8.1,-,0.15,Rain,Heavy Rain,50,2012-10-02 04:11:00
12:18 AM,51.8,51.8,100,29.81,3.0,East,8.1,-,0.20,Rain,Rain,80,2012-10-02 04:18:00
12:35 AM,51.8,51.8,100,29.81,4.0,ENE,10.4,-,0.24,Rain,Light Rain,60,2012-10-02 04:35:00
12:52 AM,52.0,52.0,100,29.80,6.0,NE,6.9,-,0.25,,Overcast,40,2012-10-02 04:52:00
1:12 AM,51.8,51.8,100,29.80,5.0,North,6.9,-,0.00,Rain,Light Rain,360,2012-10-02 05:12:00
1:42 AM,51.8,51.8,100,29.80,2.5,NE,5.8,-,0.06,Rain,Light Rain,40,2012-10-02 05:42:00
1:52 AM,52.0,52.0,100,29.79,2.5,NNE,8.1,-,0.08,Rain,Light Rain,30,2012-10-02 05:52:00
2:10 AM,51.8,51.8,100,29.80,3.0,NNE,6.9,-,0.03,Rain,Light Rain,30,2012-10-02 06:10:00
2:29 AM,51.8,51.8,100,29.79,4.0,NE,9.2,-,0.03,Rain,Light Rain,40,2012-10-02 06:29:00
2:52 AM,53.1,53.1,100,29.79,4.0,NNE,5.8,-,0.04,Rain,Light Rain,30,2012-10-02 06:52:00
3:52 AM,53.1,53.1,100,29.77,4.0,NE,8.1,-,0.03,Rain,Light Rain,50,2012-10-02 07:52:00
4:52 AM,54.0,54.0,100,29.77,5.0,ENE,6.9,-,0.00,,Overcast,70,2012-10-02 08:52:00
5:52 AM,54.0,54.0,100,29.78,5.0,East,4.6,-,N/A,,Overcast,80,2012-10-02 09:52:00
6:21 AM,53.6,53.6,100,29.78,2.5,East,5.8,-,N/A,,Overcast,80,2012-10-02 10:21:00
6:37 AM,53.6,53.6,100,29.79,4.0,East,6.9,-,N/A,,Overcast,90,2012-10-02 10:37:00
6:52 AM,55.0,55.0,100,29.78,4.0,East,5.8,-,N/A,,Overcast,90,2012-10-02 10:52:00
7:39 AM,55.4,55.4,100,29.80,3.0,East,4.6,-,N/A,,Overcast,100,2012-10-02 11:39:00
7:50 AM,55.4,55.4,100,29.80,2.0,East,4.6,-,N/A,,Overcast,100,2012-10-02 11:50:00
7:52 AM,55.0,55.0,100,29.81,2.0,East,5.8,-,N/A,,Overcast,100,2012-10-02 11:52:00
8:25 AM,55.4,55.4,100,29.82,3.0,East,5.8,-,N/A,,Overcast,100,2012-10-02 12:25:00
8:37 AM,55.4,55.4,100,29.82,2.5,East,3.5,-,N/A,,Overcast,100,2012-10-02 12:37:00
8:48 AM,55.4,55.4,100,29.83,3.0,East,4.6,-,N/A,,Overcast,100,2012-10-02 12:48:00
8:52 AM,55.4,55.4,100,29.83,2.5,East,5.8,-,N/A,,Overcast,100,2012-10-02 12:52:00
9:17 AM,55.4,55.4,100,29.83,3.0,East,4.6,-,N/A,,Overcast,100,2012-10-02 13:17:00
9:40 AM,57.2,57.2,100,29.83,2.5,East,4.6,-,N/A,,Overcast,100,2012-10-02 13:40:00
9:47 AM,57.2,57.2,100,29.83,2.5,East,4.6,-,N/A,,Overcast,100,2012-10-02 13:47:00
9:52 AM,57.0,57.0,100,29.83,2.5,East,4.6,-,N/A,,Overcast,100,2012-10-02 13:52:00
10:11 AM,57.2,57.2,100,29.83,3.0,East,3.5,-,N/A,,Overcast,80,2012-10-02 14:11:00
10:52 AM,60.1,59.0,96,29.83,4.0,ESE,4.6,-,N/A,,Overcast,120,2012-10-02 14:52:00
11:17 AM,60.8,59.0,94,29.84,5.0,ESE,3.5,-,N/A,,Overcast,110,2012-10-02 15:17:00
11:52 AM,62.1,60.1,93,29.83,7.0,East,5.8,-,N/A,,Overcast,90,2012-10-02 15:52:00
12:52 PM,66.0,62.1,87,29.83,9.0,East,4.6,-,N/A,,Overcast,100,2012-10-02 16:52:00
1:41 PM,69.8,62.6,78,29.82,10.0,Calm,Calm,-,N/A,,Overcast,0,2012-10-02 17:41:00
1:52 PM,69.1,63.0,81,29.81,10.0,NE,4.6,-,N/A,,Overcast,50,2012-10-02 17:52:00
2:41 PM,69.8,62.6,78,29.81,10.0,North,4.6,-,N/A,,Overcast,360,2012-10-02 18:41:00
2:52 PM,70.0,64.0,81,29.80,10.0,Variable,3.5,-,N/A,,Overcast,0,2012-10-02 18:52:00
3:52 PM,71.1,64.0,78,29.79,10.0,North,9.2,-,N/A,,Overcast,360,2012-10-02 19:52:00
4:52 PM,69.1,64.0,84,29.81,10.0,NNE,4.6,-,N/A,,Overcast,20,2012-10-02 20:52:00
5:52 PM,68.0,63.0,84,29.81,10.0,NNE,6.9,-,N/A,,Overcast,30,2012-10-02 21:52:00
6:22 PM,66.2,62.6,88,29.82,10.0,NNE,8.1,-,N/A,,Scattered Clouds,30,2012-10-02 22:22:00
6:52 PM,64.9,63.0,93,29.83,10.0,NNE,8.1,-,N/A,,Scattered Clouds,30,2012-10-02 22:52:00
7:41 PM,64.4,62.6,94,29.85,9.0,NNE,5.8,-,N/A,,Overcast,20,2012-10-02 23:41:00
7:52 PM,64.9,63.0,93,29.84,9.0,NNE,6.9,-,N/A,,Overcast,20,2012-10-02 23:52:00
8:52 PM,64.0,63.0,96,29.86,5.0,North,5.8,-,0.00,Rain,Light Rain,360,2012-10-03 00:52:00
9:09 PM,64.4,62.6,94,29.87,2.5,North,5.8,-,0.03,Rain,Rain,360,2012-10-03 01:09:00
9:38 PM,62.6,62.6,100,29.88,1.0,Calm,Calm,-,0.21,Rain,Heavy Rain,0,2012-10-03 01:38:00
9:52 PM,62.6,62.6,100,29.88,1.0,NE,6.9,-,N/A,Rain,Heavy Rain,50,2012-10-03 01:52:00
10:07 PM,62.6,62.6,100,29.88,1.2,NE,8.1,-,0.24,Rain,Rain,50,2012-10-03 02:07:00
10:10 PM,62.6,62.6,100,29.88,2.0,ENE,9.2,-,0.25,Rain,Rain,60,2012-10-03 02:10:00
10:22 PM,64.4,64.4,100,29.88,3.0,ENE,9.2,-,0.31,Rain,Rain,60,2012-10-03 02:22:00
10:52 PM,64.0,64.0,100,29.87,8.0,West,6.9,-,0.33,,Overcast,260,2012-10-03 02:52:00
11:11 PM,62.6,62.6,100,29.89,2.5,West,3.5,-,N/A,,Scattered Clouds,270,2012-10-03 03:11:00
11:16 PM,62.6,62.6,100,29.89,1.0,Calm,Calm,-,N/A,,Mostly Cloudy,0,2012-10-03 03:16:00
11:23 PM,62.6,62.6,100,29.89,0.5,West,3.5,-,N/A,Fog,Fog,270,2012-10-03 03:23:00
11:30 PM,62.6,62.6,100,29.89,0.2,Calm,Calm,-,N/A,Fog,Fog,0,2012-10-03 03:30:00
11:52 PM,62.1,62.1,100,29.88,0.2,Calm,Calm,-,N/A,Fog,Fog,0,2012-10-03 03:52:00